CDT,Max TemperatureF,Mean TemperatureF,Min TemperatureF,Max Dew PointF,MeanDew PointF,Min DewpointF,Max Humidity, Mean Humidity, Min Humidity, Max Sea Level PressureIn, Mean Sea Level PressureIn, Min Sea Level PressureIn, Max VisibilityMiles, Mean VisibilityMiles, Min VisibilityMiles, Max Wind SpeedMPH, Mean Wind SpeedMPH, Max Gust SpeedMPH,PrecipitationIn, CloudCover, Events, WindDirDegrees
2013-3-1,57,46,36,32,29,24,86,56,28,30.24,30.18,30.13,10,10,10,17,6,26,0.00,0,,326
2013-3-2,48,40,32,31,24,20,82,57,33,30.32,30.26,30.19,10,10,10,20,8,24,0.00,1,,335
2013-3-3,62,44,27,36,26,20,92,54,22,30.30,30.19,30.07,10,10,10,12,3,20,0.00,0,,179
2013-3-4,72,57,42,58,50,37,86,69,49,30.06,29.92,29.82,10,10,10,23,12,41,0.00,3,,184
2013-3-5,66,57,46,61,45,22,94,61,21,30.30,30.05,29.82,10,10,9,20,11,33,0.01,4,Rain,285
2013-3-6,63,50,36,33,24,17,79,43,17,30.40,30.31,30.26,10,10,10,10,6,,0.00,0,,337
2013-3-7,64,50,37,37,31,27,83,53,26,30.35,30.28,30.23,10,10,10,9,4,,0.00,0,,115
2013-3-8,72,54,37,48,41,34,89,61,30,30.30,30.21,30.12,10,10,10,10,3,,0.00,0,,136
2013-3-9,70,62,54,59,54,40,94,80,55,30.12,30.00,29.89,10,10,9,24,9,30,0.00,6,Rain,143
2013-3-10,69,58,46,61,55,36,94,87,66,30.03,29.87,29.81,10,9,2,21,12,31,0.15,7,Rain,237
2013-3-11,57,49,39,36,31,26,86,55,34,30.09,30.03,29.98,10,10,10,17,11,26,0.00,1,,324
2013-3-12,66,50,34,35,30,23,92,52,20,30.28,30.17,30.09,10,10,10,9,3,,0.00,0,,19
2013-3-13,68,54,41,36,30,23,79,45,19,30.45,30.37,30.28,10,10,10,16,6,22,0.00,0,,18
2013-3-14,72,56,39,40,32,26,76,46,22,30.45,30.36,30.29,10,10,9,10,3,24,0.00,0,,180
2013-3-15,77,60,43,56,46,40,93,62,30,30.29,30.19,30.09,10,10,10,15,5,24,0.00,0,,199
2013-3-16,77,66,55,57,54,49,100,75,37,30.07,29.99,29.88,10,10,7,17,9,23,0.00,3,,188
2013-3-17,77,66,55,63,60,55,100,83,58,29.92,29.85,29.75,10,9,4,16,9,24,0.00,6,,173
2013-3-18,84,74,64,65,62,53,100,76,44,29.96,29.81,29.74,10,8,4,17,8,23,0.00,7,,207
2013-3-19,75,63,51,51,41,35,77,47,28,30.06,30.00,29.95,10,10,10,12,9,23,0.00,1,,75
2013-3-20,70,59,48,46,37,25,90,51,19,30.22,30.12,30.04,10,10,9,20,10,32,0.16,2,Rain-Thunderstorm,19
2013-3-21,70,58,45,47,36,29,80,48,26,30.06,29.93,29.80,10,10,10,18,7,25,0.00,3,,136
2013-3-22,81,68,55,65,60,47,96,78,56,29.81,29.74,29.68,10,9,3,17,10,22,0.00,6,,144
2013-3-23,70,66,59,66,63,55,100,88,78,29.79,29.72,29.60,10,7,2,15,5,,0.00,8,Rain,85
2013-3-24,59,51,39,56,44,27,94,70,32,30.12,29.85,29.67,10,9,4,26,10,32,0.01,5,Rain,320
2013-3-25,57,46,35,30,20,11,73,42,16,30.35,30.23,30.13,10,10,10,21,9,31,0.00,0,,336
2013-3-26,55,42,28,28,21,15,79,44,22,30.46,30.39,30.34,10,10,10,15,6,25,0.00,0,,334
2013-3-27,66,49,32,39,28,23,79,52,20,30.44,30.35,30.24,10,10,8,10,3,,0.00,0,,157
2013-3-28,71,58,45,51,43,39,86,64,38,30.35,30.28,30.21,10,9,4,9,3,17,0.00,5,,141
2013-3-29,75,63,51,56,52,47,100,71,38,30.28,30.22,30.16,10,9,4,14,6,17,0.00,4,,171
2013-3-30,75,66,57,61,58,53,94,80,46,30.18,30.09,30.00,10,9,2,14,6,21,0.07,4,Rain,186
2013-3-31,72,64,57,63,60,55,100,92,71,30.01,29.96,29.88,10,5,0,34,5,45,0.42,7,Fog-Rain-Thunderstorm,184